CZ-6A DEB

Satellite information

Favourite Embed

Satellite Type and Status

DEBRISIN ORBIT

Key statistics

Satellite CZ-6A DEB at a glance.

Uptime

909

Days in orbit

Revolutions

≈ 14.5

Per day

Orbit

SSO

Sun Synchronous Orbit

Inclination

98.6

Latest

Satellite identification and parameters

Extended collection of information and parameters for CZ-6A DEB.

Object identification

Identified? True

Debris? True

Object name: CZ-6A DEB

International designator: 2022-151ST

Object number (NORAD): 54954

Object ID (CCSDS): 54954

Country: PEOPLES REPUBLIC OF CHINA (PRC)

Current information (Y/N): Y

RCS size: SMALL

Orbital parameters

Period: 99.083 minutes

Inclination: 98.6476 deg

SMA: 7092.92 km

Apoapsis: 787.778 km

Periapsis: 641.792 km

RAAN: 165.4621 deg

Eccentricy: 0.010291

Argument of periapsis: 111.2689 deg

Mean anomaly: 249.9532 deg

Mean motion: 14.53333139 rev/day

Mean motion (dot): 0.00008598 rev/day2

B* drag term: 0.0019386 1/REarth

Two-line elements (TLE)

Creation date: May 8, 2025, 3:01 a.m.

Reference frame: TEME

Reference center: EARTH

Epoch: May 7, 2025, 4:03 p.m. UTC

TLE line 0: 0 CZ-6A DEB

TLE line 1: 1 54954U 22151ST 25127.66898883 .00008598 00000-0 19386-2 0 9990

TLE line 2: 2 54954 98.6476 165.4621 0102910 111.2689 249.9532 14.53333139130569

Live tracking on map

Real-time ground track for satellite CZ-6A DEB.

In-orbit conjunctions

A list of the most updated potential collisions computed for object CZ-6A DEB.

Target Orbit TCA Probability of collision Miss distance Type
COSMOS 1048 LEO 2025-03-18 19:27:17 0.0004580997 318.0 (m) PAYLOAD
SDS-1 SSO 2025-01-06 15:54:20 0.000700747 147.0 (m) PAYLOAD
SL-8 R/B LEO 2024-09-24 20:12:47 0.0001256645 356.0 (m) ROCKET BODY

Associated space launch

Chinese satellite reported for atmospheric/ocean/environmental/spatial parameter research purposes, details TBD.

CZ-6A DEB was lifted into orbit during the mission ‘Long March 6A | Yunhai 3’, on board a Long March 6A space rocket.

The launch took place on Nov. 11, 2022, 10:52 p.m. from Launch Complex 9A.

For more information about the launch, click the button.

Launch to space Long March 6A | Yunhai 3
Long March 6A | Yunhai 3

Agency: N/A

Status: Launch Successful

Launch date: Nov. 11, 2022, 10:52 p.m. UTC

Rocket: Long March 6A

Launch pad: Launch Complex 9A

Location: Taiyuan Satellite Launch Center, People's Republic of China

...

Latest news about this satellite

There are no fresh news available about this satellite. Check back as we update our databases every day.


Newsletter sign-up

Weekly statistics, charts and insights to help you stay on top of the space industry.